Location: Young's Pond
(41.2695°N, 72.7766°W)
Time: 05:52:35
(UTC-04:00)

Spot 4 - Visible Passes

Search period start: 23 July 2014 00:00
Search period end: 02 August 2014 00:00
Orbit: 707 x 724 km, 98.5° (Epoch: 22 July)

Date Brightness Start Highest point End Pass type
(mag) Time Alt. Az. Time Alt. Az. Time Alt. Az.
23 Jul 5.4 21:02:18 10° ESE 21:05:55 22° ENE 21:09:34 10° NNE visible
23 Jul 4.8 22:41:20 26° SSW 22:43:36 43° W 22:48:13 10° NNW visible
24 Jul 4.0 21:49:40 24° SE 21:52:29 59° ENE 21:57:16 10° N visible
24 Jul 6.2 23:28:51 12° WSW 23:30:51 15° W 23:33:35 10° WNW visible
25 Jul 5.5 20:58:19 10° ESE 21:01:46 20° ENE 21:05:14 10° NNE visible
25 Jul 4.6 22:37:11 28° SSW 22:39:23 47° W 22:44:05 10° NNW visible
26 Jul 4.1 21:45:32 24° SE 21:48:18 53° ENE 21:53:02 10° N visible
26 Jul 6.1 23:24:42 14° WSW 23:26:36 17° W 23:29:40 10° NW visible
27 Jul 5.6 20:54:23 10° ESE 20:57:37 18° ENE 21:00:52 10° NNE visible
27 Jul 4.4 22:33:03 30° SSW 22:35:10 53° W 22:39:55 10° NNW visible
28 Jul 4.3 21:41:24 23° SE 21:44:07 48° ENE 21:48:48 10° N visible
28 Jul 5.9 23:20:35 15° WSW 23:22:21 18° W 23:25:42 10° NW visible
29 Jul 5.7 20:50:27 10° E 20:53:28 17° ENE 20:56:29 10° NNE visible
29 Jul 4.3 22:28:56 33° SSW 22:30:57 59° W 22:35:46 10° NNW visible
30 Jul 4.4 21:37:17 23° SE 21:39:56 44° ENE 21:44:33 10° N visible
30 Jul 5.8 23:16:27 17° WSW 23:18:06 20° W 23:21:41 10° NW visible
31 Jul 5.8 20:46:35 10° E 20:49:19 15° ENE 20:52:04 10° NNE visible
31 Jul 4.1 22:24:49 35° S 22:26:44 65° WSW 22:31:35 10° NNW visible
01 Aug 4.5 21:33:10 22° SE 21:35:46 40° ENE 21:40:17 10° N visible
01 Aug 5.7 23:12:20 19° WSW 23:13:52 22° W 23:17:39 10° NW visible
